sat.trackr.live / text

‹ back to catalog

UNKNOWN

NORAD 82199

UNKNOWN UNKNOWN UNKNOWN

§ Identity

Operator
Country
Launch date
Launch site
Launch vehicle
Mass (kg)
RCS (m²)

External: N2YO · Heavens-Above

§ Orbital elements

Epoch: 2026-05-22T16:56:42.394272Z

Period
103.90 min
Inclination
82.9650°
Eccentricity
0.0035613
Mean motion
13.85958440 rev/d
Perigee alt
916.8 km
Apogee alt
968.9 km
Semi-major
7,321.0 km
B*
3.3441e-4
RAAN
112.8666°
Arg perigee
301.8755°
Mean anomaly
237.2687°
Rev number
63,198

§ Raw data

UNKNOWN1 82199U          26142.70604623  .00000401  00000+0  33441-3 0  99942 82199  82.9650 112.8666 0035613 301.8755 237.2687 13.85958440631987

JSON: /api/v1/satellites/82199 · /tle

For live sub-satellite position, see the globe view (requires WebGL).

§ Visibility from observer

Set your observer location to see the next 7 days of passes ≥ 10°. The values pass through the URL so the page stays shareable.

No JS? Fill the form by hand. The geolocation button needs JavaScript.